FW7766 Weather Reports


Display with metric or nautical units.
time (UTC)temp
F
wind
direction
speed
MPH
gust
MPH
rain 1hr
in
rain 24hr
in
rain mn
in
humidity
%
barometer
mb
20260503002525 55 0.0 0.0 0.00 0.00 0.00 45 1013.9
20260503001542 56 0.0 0.0 0.00 0.00 0.00 46 1013.7
20260503000518 56 0.0 0.0 0.00 0.00 0.00 43 1013.5
20260502235615 56 90 0.0 1.0 0.00 0.00 0.00 43 1013.4
20260502234612 56 90 0.0 2.0 0.00 0.00 0.00 45 1013.4
20260502233608 57 45 1.0 2.0 0.00 0.00 0.00 40 1013.3
20260502232605 57 0.0 0.0 0.00 0.00 0.00 40 1013.1
20260502231601 57 0.0 0.0 0.00 0.00 0.00 40 1013.0
20260502230557 58 0.0 0.0 0.00 0.00 0.00 40 1012.9
20260502225555 58 0.0 0.0 0.00 0.00 0.00 40 1012.8
20260502224551 59 0.0 1.0 0.00 0.00 0.00 40 1012.8
20260502223547 59 0.0 0.0 0.00 0.00 0.00 40 1012.6
20260502222544 59 0.0 0.0 0.00 0.00 0.00 40 1012.5
20260502221541 60 0.0 0.0 0.00 0.00 0.00 40 1012.4
20260502220537 60 0.0 0.0 0.00 0.00 0.00 40 1012.2
20260502215534 60 0.0 0.0 0.00 0.00 0.00 40 1012.1
20260502214532 60 90 0.0 1.0 0.00 0.00 0.00 40 1011.9
20260502213527 60 0.0 0.0 0.00 0.00 0.00 40 1011.8
20260502212544 61 90 1.0 3.0 0.00 0.00 0.00 40 1011.8
20260502211520 62 270 1.0 2.0 0.00 0.00 0.00 40 1011.7
20260502210537 62 180 0.0 1.0 0.00 0.00 0.00 40 1011.5
20260502205614 61 135 0.0 2.0 0.00 0.00 0.00 40 1011.5
20260502204611 61 198 0.0 1.0 0.00 0.00 0.00 40 1011.6
20260502203607 60 75 1.0 2.0 0.00 0.00 0.00 40 1011.6
20260502202604 59 90 1.0 3.0 0.00 0.00 0.00 40 1011.7
20260502201620 60 90 1.0 3.0 0.00 0.00 0.00 40 1011.8
20260502200557 60 135 1.0 2.0 0.00 0.00 0.00 40 1011.9
20260502195554 60 180 1.0 2.0 0.00 0.00 0.00 40 1012.2
20260502194550 60 315 1.0 2.0 0.00 0.00 0.00 40 1012.4
20260502193547 58 90 2.0 3.0 0.00 0.00 0.00 40 1012.8
20260502192543 58 135 1.0 2.0 0.00 0.00 0.00 40 1012.9
20260502191540 59 0 0.0 2.0 0.00 0.00 0.00 40 1013.0
20260502190536 60 293 1.0 4.0 0.00 0.00 0.00 40 1013.0
20260502185533 59 207 0.0 1.0 0.00 0.00 0.00 40 1013.0
20260502184529 59 0.0 0.0 0.00 0.00 0.00 40 1013.3
20260502183526 58 0.0 0.0 0.00 0.00 0.00 40 1013.4
20260502182524 57 270 1.0 1.0 0.00 0.00 0.00 40 1013.4
20260502181600 56 90 1.0 3.0 0.00 0.00 0.00 40 1013.5
20260502180517 56 0.0 0.0 0.00 0.00 0.00 40 1013.7
20260502163604 53 90 2.0 3.0 0.00 0.00 0.00 45 1015.0
20260502162542 54 90 1.0 3.0 0.00 0.00 0.00 45 1015.2
20260502161537 53 270 1.0 1.0 0.00 0.00 0.00 45 1015.3
20260502160533 53 0.0 0.0 0.00 0.00 0.00 45 1015.2
20260502151517 52 270 1.0 1.0 0.00 0.00 0.00 45 1015.4
20260502150614 52 0.0 1.0 0.00 0.00 0.00 45 1015.4
20260502130533 53 270 0.0 1.0 0.00 0.00 0.00 58 1014.7
20260502123543 52 0.0 0.0 0.00 0.00 0.00 57 1014.1
20260502122519 52 270 1.0 2.0 0.00 0.00 0.00 55 1013.9
20260502121516 52 270 1.0 2.0 0.00 0.00 0.00 55 1014.0
20260502120613 52 270 1.0 2.0 0.00 0.00 0.00 56 1014.1
20260502115610 51 270 1.0 2.0 0.00 0.00 0.00 56 1014.0
20260502114626 51 270 1.0 2.0 0.00 0.00 0.00 56 1014.1
20260502113603 51 270 1.0 1.0 0.00 0.00 0.00 58 1014.0
20260502112624 51 270 1.0 2.0 0.00 0.00 0.00 58 1014.1
20260502111556 51 270 1.0 2.0 0.00 0.00 0.00 58 1013.9
20260502110553 51 270 1.0 1.0 0.00 0.00 0.00 58 1013.9
20260502105549 51 270 0.0 1.0 0.00 0.00 0.00 58 1013.8
20260502104625 51 0.0 0.0 0.00 0.00 0.00 62 1013.6
20260502103542 50 270 1.0 2.0 0.00 0.00 0.00 65 1013.6
20260502102558 51 270 0.0 1.0 0.00 0.00 0.00 68 1013.8
20260502101535 51 0.0 0.0 0.00 0.00 0.00 67 1013.8
20260502100532 51 0.0 0.0 0.00 0.00 0.00 66 1013.8
20260502090611 52 0.0 0.0 0.00 0.00 0.00 66 1013.9
20260502071532 52 0.0 0.0 0.00 0.00 0.00 67 1012.8
20260502070527 52 0.0 0.0 0.00 0.00 0.00 67 1012.9
20260502065524 52 0.0 0.0 0.00 0.00 0.00 66 1012.9
20260502064521 52 0.0 0.0 0.00 0.00 0.00 66 1013.0
20260502063518 52 0.0 0.0 0.00 0.00 0.00 66 1013.2
20260502062614 52 0.0 0.0 0.00 0.00 0.00 66 1013.3
20260502061611 52 0.0 0.0 0.00 0.00 0.00 66 1013.2
20260502060627 52 0.0 0.0 0.00 0.00 0.00 66 1013.5
20260502055604 52 0.0 0.0 0.00 0.00 0.00 66 1013.4
20260502054601 52 0.0 0.0 0.00 0.00 0.00 66 1013.5
20260502053557 52 0.0 0.0 0.00 0.00 0.00 66 1013.5
20260502052554 52 0.0 0.0 0.00 0.00 0.00 67 1013.5
20260502051551 52 270 0.0 2.0 0.00 0.00 0.00 67 1013.4
20260502050547 53 270 1.0 3.0 0.00 0.00 0.00 65 1013.2
20260502045544 53 0.0 0.0 0.00 0.00 0.00 65 1013.1
20260502044540 53 0.0 0.0 0.00 0.00 0.00 65 1013.2
20260502043537 53 0.0 0.0 0.00 0.00 0.00 65 1013.3
20260502042533 53 0.0 0.0 0.00 0.00 0.00 65 1013.2
20260502041550 54 0.0 0.0 0.00 0.00 0.00 64 1013.2
20260502040528 55 0.0 0.0 0.00 0.00 0.00 58 1013.3
20260502035523 55 0.0 0.0 0.00 0.00 0.00 57 1013.3
20260502034521 55 0.0 0.0 0.00 0.00 0.00 57 1013.4
20260502033517 55 0.0 0.0 0.00 0.00 0.00 57 1013.4
20260502032613 55 0.0 0.0 0.00 0.00 0.00 57 1013.5
20260502031610 55 0.0 0.0 0.00 0.00 0.00 57 1013.7
20260502030607 56 0.0 0.0 0.00 0.00 0.00 56 1013.7
20260502025603 56 0.0 1.0 0.00 0.00 0.00 56 1013.6
20260502024600 56 0.0 1.0 0.00 0.00 0.00 56 1013.5
20260502023556 56 0.0 0.0 0.00 0.00 0.00 56 1013.5
20260502022553 57 180 0.0 2.0 0.00 0.00 0.00 55 1013.6
20260502021549 57 180 1.0 2.0 0.00 0.00 0.00 55 1013.4
20260502020547 57 0.0 0.0 0.00 0.00 0.00 55 1013.3
20260502015543 57 0.0 1.0 0.00 0.00 0.00 54 1013.2
20260502014539 57 180 0.0 3.0 0.00 0.00 0.00 51 1013.1
20260502013536 58 180 0.0 1.0 0.00 0.00 0.00 50 1013.2
20260502012532 58 180 0.0 1.0 0.00 0.00 0.00 48 1013.2
20260502011530 58 180 0.0 3.0 0.00 0.00 0.00 47 1013.1
20260502010545 59 0.0 0.0 0.00 0.00 0.00 46 1013.0
20260502005542 59 180 0.0 1.0 0.00 0.00 0.00 45 1012.8
20260502004519 59 0.0 0.0 0.00 0.00 0.00 45 1012.6
20260502003555 60 180 0.0 1.0 0.00 0.00 0.00 47 1012.4